Location: Fauquembergues
(50.6005°N, 2.0987°E)
Time: 04:32:30
(UTC+00:00)

CBERS-1 - Pass Details

Date: 14 July 2020
Orbit: 770 x 777 km, 98.6° (Epoch: 06 August)

Event Time Altitude Azimuth Distance (km) Brightness Sun altitude
Rises 02:30:34 0° 13° (NNE) 3,271 8.7 -10.3°
Reaches altitude 10° 02:32:54 10° 12° (NNE) 2,339 7.7 -10.1°
Maximum altitude 02:38:03 75° 288° (WNW) 808 4.1 -9.6°
Enters shadow 02:43:03 11° 204° (SSW) 2,281 5.8 -9.1°
